FW7828 Weather Reports


time (UTC)temp
C
wind
direction
speed
KPH
gust
KPH
rain 1hr
cm
rain 24hr
cm
rain mn
cm
humidity
%
barometer
mb
20260503211729 17 182 4.8 4.8 0.00 0.00 0.00 41 1015.0
20260503211225 17 150 6.4 8.0 0.00 0.00 0.00 40 1014.9
20260503210721 17 201 3.2 3.2 0.00 0.00 0.00 41 1015.0
20260503210219 17 22 1.6 1.6 0.00 0.00 0.00 39 1014.9
20260503205714 17 173 4.8 4.8 0.00 0.00 0.00 40 1015.0
20260503205210 17 25 1.6 1.6 0.00 0.00 0.00 41 1014.9
20260503204707 18 160 1.6 3.2 0.00 0.00 0.00 42 1015.1
20260503204204 17 340 1.6 1.6 0.00 0.00 0.00 42 1014.9
20260503203701 18 185 4.8 8.0 0.00 0.00 0.00 42 1015.0
20260503203159 18 206 3.2 3.2 0.00 0.00 0.00 39 1015.0
20260503202656 18 57 3.2 3.2 0.00 0.00 0.00 38 1015.0
20260503202154 18 66 1.6 3.2 0.00 0.00 0.00 37 1015.0
20260503201652 18 154 4.8 8.0 0.00 0.00 0.00 39 1015.1
20260503201149 18 158 3.2 3.2 0.00 0.00 0.00 40 1015.2
20260503200645 18 163 4.8 4.8 0.00 0.00 0.00 42 1015.3
20260503200141 18 325 0.0 1.6 0.00 0.00 0.00 44 1015.4
20260503195639 18 134 3.2 4.8 0.00 0.00 0.00 39 1015.5
20260503195135 18 106 3.2 3.2 0.00 0.00 0.00 41 1015.5
20260503194633 18 296 0.0 1.6 0.00 0.00 0.00 40 1015.4
20260503194128 18 298 4.8 4.8 0.00 0.00 0.00 42 1015.7
20260503193625 18 57 3.2 4.8 0.00 0.00 0.00 44 1015.6
20260503193120 18 151 4.8 8.0 0.00 0.00 0.00 43 1015.6
20260503192616 17 129 6.4 8.0 0.00 0.00 0.00 42 1015.8
20260503192112 17 140 4.8 8.0 0.00 0.00 0.00 43 1015.9
20260503191609 17 91 1.6 3.2 0.00 0.00 0.00 43 1015.8
20260503191106 18 233 3.2 3.2 0.00 0.00 0.00 44 1016.0
20260503190603 18 219 1.6 1.6 0.00 0.00 0.00 46 1016.0
20260503190100 17 302 1.6 1.6 0.00 0.00 0.00 45 1016.1
20260503185556 17 98 3.2 3.2 0.00 0.00 0.00 44 1016.1
20260503185056 16 120 1.6 1.6 0.00 0.00 0.00 43 1016.1
20260503184552 17 148 4.8 8.0 0.00 0.00 0.00 45 1016.3
20260503184049 17 22 1.6 1.6 0.00 0.00 0.00 46 1016.2
20260503183545 17 130 4.8 8.0 0.00 0.00 0.00 44 1016.2
20260503183043 17 349 3.2 4.8 0.00 0.00 0.00 43 1016.4
20260503182541 17 152 8.0 9.7 0.00 0.00 0.00 43 1016.4
20260503182039 17 7 1.6 1.6 0.00 0.00 0.00 48 1016.4
20260503181535 16 174 3.2 3.2 0.00 0.00 0.00 46 1016.6
20260503181032 17 48 3.2 3.2 0.00 0.00 0.00 44 1016.6
20260503180529 17 145 9.7 12.9 0.00 0.00 0.00 42 1016.7
20260503180026 16 132 3.2 8.0 0.00 0.00 0.00 45 1016.4
20260503175524 16 137 4.8 4.8 0.00 0.00 0.00 46 1016.6
20260503175020 16 196 3.2 4.8 0.00 0.00 0.00 46 1016.6
20260503174518 17 130 4.8 8.0 0.00 0.00 0.00 42 1016.7
20260503174014 16 131 0.0 0.0 0.00 0.00 0.00 46 1016.5
20260503173509 16 359 0.0 1.6 0.00 0.00 0.00 48 1016.6
20260503173006 15 148 1.6 4.8 0.00 0.00 0.00 49 1016.7
20260503172504 16 182 3.2 3.2 0.00 0.00 0.00 43 1016.6
20260503172001 16 252 1.6 3.2 0.00 0.00 0.00 48 1016.6
20260503171457 17 140 1.6 3.2 0.00 0.00 0.00 43 1016.7
20260503170954 16 131 4.8 4.8 0.00 0.00 0.00 46 1016.7
20260503170450 15 297 1.6 1.6 0.00 0.00 0.00 52 1016.6
20260503150843 15 91 4.8 8.0 0.00 0.00 0.00 48 1017.1
20260503150339 15 163 1.6 3.2 0.00 0.00 0.00 51 1017.0
20260503140303 13 340 3.2 3.2 0.00 0.00 0.00 57 1017.2
20260503131233 11 12 4.8 4.8 0.00 0.00 0.00 67 1016.8
20260503130730 11 32 1.6 1.6 0.00 0.00 0.00 70 1017.0
20260503130227 11 35 0.0 1.6 0.00 0.00 0.00 70 1016.7
20260503120153 9 15 1.6 1.6 0.00 0.00 0.00 83 1016.0
20260503110621 7 0 0.0 0.0 0.00 0.00 0.00 96 1015.0
20260503110118 7 350 0.0 0.0 0.00 0.00 0.00 96 1015.1
20260503090508 7 356 0.0 0.0 0.00 0.00 0.00 96 1013.2
20260503081434 7 336 0.0 0.0 0.00 0.00 0.00 96 1012.9
20260503080931 7 333 0.0 0.0 0.00 0.00 0.00 96 1012.8
20260503080428 7 333 0.0 0.0 0.00 0.00 0.00 96 1012.7
20260503072904 7 342 0.0 0.0 0.00 0.00 0.00 96 1012.1
20260503072401 7 342 0.0 0.0 0.00 0.00 0.00 96 1012.1
20260503071858 7 342 0.0 0.0 0.00 0.00 0.00 95 1012.3
20260503071355 7 342 0.0 0.0 0.00 0.00 0.00 95 1012.1
20260503070851 7 342 0.0 0.0 0.00 0.00 0.00 95 1012.1
20260503070349 7 343 0.0 0.0 0.00 0.00 0.00 95 1012.0
20260503060315 8 351 0.0 0.0 0.00 0.00 0.00 95 1011.5
20260503054802 8 333 0.0 0.0 0.00 0.00 0.00 95 1011.8
20260503054258 8 333 0.0 0.0 0.00 0.00 0.00 95 1011.9
20260503053756 8 333 0.0 0.0 0.00 0.00 0.00 95 1011.6
20260503053255 9 333 0.0 0.0 0.00 0.00 0.00 95 1011.7
20260503052750 9 333 0.0 0.0 0.00 0.00 0.00 95 1011.6
20260503052248 9 333 0.0 0.0 0.00 0.00 0.00 95 1011.5
20260503051742 9 333 0.0 0.0 0.00 0.00 0.00 95 1011.7
20260503051240 9 333 0.0 0.0 0.00 0.00 0.00 95 1011.6
20260503050736 10 333 0.0 0.0 0.00 0.00 0.00 95 1011.7
20260503050233 10 334 0.0 0.0 0.00 0.00 0.00 95 1011.6
20260503045731 10 333 0.0 0.0 0.00 0.00 0.00 95 1011.7
20260503045229 10 339 0.0 0.0 0.00 0.00 0.00 95 1011.7
20260503044724 10 339 0.0 0.0 0.00 0.00 0.00 95 1011.7
20260503044222 10 336 0.0 0.0 0.00 0.00 0.00 95 1011.7
20260503043718 10 328 0.0 0.0 0.00 0.00 0.00 95 1011.9
20260503043216 10 328 0.0 0.0 0.00 0.00 0.00 95 1011.7
20260503042712 10 328 0.0 0.0 0.00 0.00 0.00 95 1011.5
20260503042209 10 328 0.0 0.0 0.00 0.00 0.00 95 1011.7
20260503041704 10 328 0.0 0.0 0.00 0.00 0.00 95 1011.6
20260503041202 10 328 0.0 0.0 0.00 0.00 0.00 95 1011.6
20260503040659 10 328 0.0 0.0 0.00 0.00 0.00 95 1011.5
20260503040157 10 327 0.0 0.0 0.00 0.00 0.00 95 1011.6
20260503035654 10 327 0.0 0.0 0.00 0.43 0.43 95 1011.4
20260503035151 10 323 0.0 0.0 0.00 0.43 0.43 95 1011.5
20260503034648 10 321 0.0 0.0 0.00 0.43 0.43 95 1011.6
20260503034145 10 321 0.0 0.0 0.00 0.43 0.43 95 1011.8
20260503033643 10 334 0.0 0.0 0.00 0.43 0.43 95 1011.7
20260503033140 10 346 0.0 0.0 0.00 0.43 0.43 95 1011.5
20260503032638 10 347 0.0 0.0 0.00 0.43 0.43 95 1011.7
20260503032137 10 347 0.0 0.0 0.00 0.43 0.43 95 1011.7
20260503031634 10 347 0.0 0.0 0.00 0.43 0.43 95 1011.5
20260503031131 10 347 0.0 0.0 0.00 0.43 0.43 95 1011.5
20260503030627 10 347 0.0 0.0 0.00 0.43 0.43 95 1011.3
20260503030124 10 344 0.0 0.0 0.00 0.43 0.43 95 1011.5
20260503025620 10 344 0.0 0.0 0.00 0.43 0.43 95 1011.6
20260503025119 10 344 0.0 0.0 0.00 0.43 0.43 95 1011.5
20260503024615 10 344 0.0 0.0 0.00 0.43 0.43 95 1011.7
20260503024112 10 344 0.0 0.0 0.00 0.43 0.43 94 1011.5
20260503023609 10 346 0.0 0.0 0.00 0.43 0.43 94 1011.5
20260503023106 10 341 0.0 0.0 0.00 0.43 0.43 94 1011.6
20260503022601 10 345 0.0 0.0 0.00 0.43 0.43 94 1011.3
20260503022056 10 345 0.0 0.0 0.00 0.43 0.43 94 1011.2
20260503021554 11 345 0.0 0.0 0.00 0.43 0.43 94 1011.3
20260503021050 11 11 0.0 0.0 0.00 0.43 0.43 94 1011.3
20260503020548 11 332 0.0 0.0 0.00 0.43 0.43 94 1011.6
20260503020044 11 338 0.0 0.0 0.00 0.43 0.43 94 1011.5
20260503015541 11 338 0.0 0.0 0.00 0.43 0.43 94 1011.3
20260503015039 11 339 0.0 0.0 0.00 0.43 0.43 94 1011.4
20260503014534 11 339 0.0 0.0 0.00 0.43 0.43 94 1011.5
20260503014032 11 335 0.0 0.0 0.00 0.43 0.43 94 1011.5
20260503013529 11 333 0.0 0.0 0.00 0.43 0.43 94 1011.6
20260503013027 11 324 0.0 0.0 0.00 0.43 0.43 94 1011.4
20260503012524 11 325 0.0 0.0 0.00 0.43 0.43 94 1011.5
20260503012020 11 325 0.0 0.0 0.00 0.43 0.43 93 1011.2
20260503011517 11 331 0.0 0.0 0.00 0.43 0.43 93 1011.2
20260503011015 11 331 0.0 0.0 0.18 0.43 0.43 93 1010.8
20260503010511 11 327 0.0 0.0 0.00 0.41 0.41 93 1011.2
20260503010009 11 327 0.0 0.0 0.00 0.41 0.41 93 1010.9
20260503005505 11 327 0.0 0.0 0.00 0.41 0.41 93 1011.0
20260503005002 11 327 0.0 0.0 0.00 0.41 0.41 93 1011.0
20260503004458 11 337 0.0 0.0 0.00 0.41 0.41 92 1011.0
20260503003956 11 342 0.0 0.0 0.00 0.41 0.41 92 1010.7
20260503003453 11 342 0.0 0.0 0.00 0.41 0.41 92 1010.5
20260503002950 11 342 0.0 0.0 0.00 0.41 0.41 92 1010.6
20260503002447 11 342 0.0 0.0 0.00 0.41 0.41 91 1010.5
20260503001943 11 315 0.0 0.0 0.00 0.41 0.41 91 1010.5
20260503001440 11 299 0.0 0.0 0.00 0.41 0.41 91 1010.9
20260503000938 11 316 0.0 0.0 0.00 0.41 0.41 91 1010.4
20260503000437 11 255 0.0 0.0 0.00 0.41 0.41 91 1010.5
20260502235932 11 308 0.0 0.0 0.00 0.41 0.41 91 1010.6
20260502235429 11 308 0.0 0.0 0.00 0.41 0.41 91 1010.4
20260502234926 11 322 0.0 0.0 0.00 0.41 0.41 90 1010.4
20260502234422 11 328 0.0 0.0 0.00 0.41 0.41 90 1010.1
20260502233919 11 328 0.0 0.0 0.00 0.41 0.41 90 1010.2
20260502233415 11 327 0.0 0.0 0.00 0.41 0.41 90 1010.1
20260502232912 11 300 0.0 0.0 0.00 0.41 0.41 89 1010.2
20260502232409 11 298 0.0 0.0 0.00 0.41 0.41 89 1010.1
20260502231905 11 298 0.0 0.0 0.00 0.41 0.41 89 1010.0
20260502231403 11 24 0.0 0.0 0.00 0.41 0.41 88 1009.8
20260502230901 11 23 0.0 0.0 0.00 0.41 0.41 88 1009.8
20260502230359 11 23 0.0 0.0 0.00 0.41 0.41 88 1009.8
20260502225855 11 23 0.0 0.0 0.00 0.41 0.41 88 1009.7
20260502225352 11 27 0.0 0.0 0.00 0.41 0.41 89 1009.9
20260502224849 11 27 0.0 0.0 0.00 0.41 0.41 89 1009.8
20260502224345 11 28 0.0 0.0 0.00 0.41 0.41 89 1009.7
20260502223843 11 20 1.6 1.6 0.00 0.41 0.41 90 1009.7
20260502223341 12 11 0.0 0.0 0.00 0.41 0.41 90 1009.9
20260502222838 12 0 0.0 0.0 0.00 0.41 0.41 90 1009.8
20260502222336 12 6 0.0 0.0 0.00 0.41 0.41 90 1009.8
20260502221831 12 6 0.0 0.0 0.00 0.41 0.41 90 1009.9
20260502221328 12 11 0.0 1.6 0.00 0.41 0.41 90 1010.1
20260502220825 12 11 1.6 1.6 0.00 0.41 0.41 90 1009.6
20260502220321 12 20 1.6 1.6 0.00 0.41 0.41 90 1009.8
20260502215817 11 3 0.0 0.0 0.00 0.41 0.41 90 1009.7
20260502215315 12 2 1.6 3.2 0.00 0.41 0.41 90 1009.9
20260502214812 12 21 0.0 1.6 0.00 0.41 0.41 90 1009.9
20260502214308 12 13 0.0 0.0 0.00 0.41 0.41 90 1009.8
20260502213806 11 5 0.0 1.6 0.00 0.41 0.41 90 1009.9
20260502213302 12 14 1.6 1.6 0.00 0.41 0.41 89 1009.8
20260502212802 12 10 0.0 0.0 0.00 0.41 0.41 89 1009.9
20260502212259 11 12 0.0 0.0 0.00 0.41 0.41 89 1009.9
20260502211755 11 13 0.0 0.0 0.00 0.41 0.41 89 1010.0